This is the latest recevied weather packets stored in our database for station/object OE9SAU-10. If no packets are shown the sender has not sent any weather packets the latest 10 day(s).
| Time | Temp. | Humidity | Pressure | Rain* | Wind** | Luminosity | Snow |
|---|---|---|---|---|---|---|---|
| 1777164454 | 14.44° C | 36% | 1022.9 hPa | - | - | - | - |
| 1777163554 | 15° C | 35% | 1022.8 hPa | - | - | - | - |
| 1777162654 | 15.56° C | 34% | 1022.9 hPa | - | - | - | - |
| 1777161754 | 15.56° C | 34% | 1022.8 hPa | - | - | - | - |
| 1777160854 | 16.11° C | 34% | 1022.7 hPa | - | - | - | - |
| 1777159954 | 16.11° C | 34% | 1022.8 hPa | - | - | - | - |
| 1777159054 | 16.67° C | 33% | 1022.7 hPa | - | - | - | - |
| 1777158154 | 16.67° C | 33% | 1022.6 hPa | - | - | - | - |
| 1777157254 | 17.22° C | 33% | 1022.6 hPa | - | - | - | - |
| 1777156354 | 17.22° C | 32% | 1022.5 hPa | - | - | - | - |
| 1777155454 | 17.78° C | 32% | 1022.6 hPa | - | - | - | - |
| 1777154554 | 17.78° C | 32% | 1022.4 hPa | - | - | - | - |
| 1777153654 | 18.33° C | 31% | 1022.3 hPa | - | - | - | - |
| 1777152754 | 18.89° C | 31% | 1022.1 hPa | - | - | - | - |
| 1777151854 | 18.89° C | 31% | 1021.9 hPa | - | - | - | - |
| 1777150954 | 19.44° C | 31% | 1021.9 hPa | - | - | - | - |
| 1777150053 | 20° C | 30% | 1021.7 hPa | - | - | - | - |
| 1777149153 | 20° C | 30% | 1021.5 hPa | - | - | - | - |
| 1777148253 | 20.56° C | 29% | 1021.3 hPa | - | - | - | - |
| 1777147353 | 21.11° C | 29% | 1021.1 hPa | - | - | - | - |
| 1777146453 | 21.67° C | 29% | 1021 hPa | - | - | - | - |
| 1777145553 | 21.67° C | 28% | 1020.8 hPa | - | - | - | - |
| 1777144653 | 22.22° C | 28% | 1020.5 hPa | - | - | - | - |
| 1777143753 | 22.78° C | 28% | 1020.4 hPa | - | - | - | - |
| 1777142853 | 23.33° C | 27% | 1020 hPa | - | - | - | - |
* Rain since midnight (hover to see other rain measurements)
** Current wind speed in m/s (hover to see current wind gust speed)